10.05.2024;22:00;17
10.05.2024;21:00;17
10.05.2024;20:00;16
10.05.2024;19:00;13
10.05.2024;18:00;12
10.05.2024;17:00;13
10.05.2024;16:00;13
10.05.2024;15:00;13
10.05.2024;14:00;13
10.05.2024;13:00;12
10.05.2024;12:00;13
10.05.2024;11:00;16
10.05.2024;10:00;19
10.05.2024;09:00;20
10.05.2024;08:00;20
10.05.2024;07:00;19
10.05.2024;06:00;17
10.05.2024;05:00;17
10.05.2024;04:00;18
10.05.2024;03:00;18
10.05.2024;02:00;18
10.05.2024;01:00;18
09.05.2024;24:00;18
09.05.2024;23:00;15
09.05.2024;22:00;12
09.05.2024;21:00;10
09.05.2024;20:00;9
09.05.2024;19:00;8
09.05.2024;18:00;8
09.05.2024;17:00;7
09.05.2024;16:00;7
09.05.2024;15:00;8
09.05.2024;14:00;7
09.05.2024;13:00;7
09.05.2024;12:00;9
09.05.2024;11:00;11
09.05.2024;10:00;11
09.05.2024;09:00;11
09.05.2024;08:00;12
09.05.2024;07:00;13
09.05.2024;06:00;14
09.05.2024;05:00;12
09.05.2024;04:00;13
09.05.2024;03:00;12
09.05.2024;02:00;12
09.05.2024;01:00;12
08.05.2024;24:00;11
08.05.2024;23:00;11
08.05.2024;22:00;11
08.05.2024;21:00;10
08.05.2024;20:00;9
08.05.2024;19:00;9
08.05.2024;18:00;10
08.05.2024;17:00;9
08.05.2024;16:00;7
08.05.2024;15:00;9
08.05.2024;14:00;9
08.05.2024;13:00;8
08.05.2024;12:00;9
08.05.2024;11:00;8
08.05.2024;10:00;11
08.05.2024;09:00;14
08.05.2024;08:00;16
08.05.2024;07:00;14
08.05.2024;06:00;13
08.05.2024;05:00;13
08.05.2024;04:00;12
08.05.2024;03:00;12
08.05.2024;02:00;10
08.05.2024;01:00;7
07.05.2024;24:00;6
07.05.2024;23:00;5
07.05.2024;22:00;6
07.05.2024;21:00;7
07.05.2024;20:00;5
07.05.2024;19:00;6
07.05.2024;18:00;7
07.05.2024;17:00;7
07.05.2024;16:00;8
07.05.2024;15:00;6
07.05.2024;14:00;4
07.05.2024;13:00;4
07.05.2024;12:00;4
07.05.2024;11:00;5
07.05.2024;10:00;5
07.05.2024;09:00;5
07.05.2024;08:00;5
07.05.2024;07:00;5
07.05.2024;06:00;7
07.05.2024;05:00;6
07.05.2024;04:00;8
07.05.2024;03:00;8
07.05.2024;02:00;7
07.05.2024;01:00;7
06.05.2024;24:00;8
06.05.2024;23:00;6
06.05.2024;22:00;5
06.05.2024;21:00;5
06.05.2024;20:00;6
06.05.2024;19:00;6
06.05.2024;18:00;7
06.05.2024;17:00;9
06.05.2024;16:00;10
06.05.2024;15:00;10
06.05.2024;14:00;7
06.05.2024;13:00;6
06.05.2024;12:00;8
06.05.2024;11:00;6
06.05.2024;10:00;9
06.05.2024;09:00;13
06.05.2024;08:00;13
06.05.2024;07:00;13
06.05.2024;06:00;9
06.05.2024;05:00;7
06.05.2024;04:00;6
06.05.2024;03:00;5
06.05.2024;02:00;5
06.05.2024;01:00;4
05.05.2024;24:00;5
05.05.2024;23:00;6
05.05.2024;22:00;9
05.05.2024;21:00;6
05.05.2024;20:00;6
05.05.2024;19:00;5
05.05.2024;18:00;6
05.05.2024;17:00;8
05.05.2024;16:00;6
05.05.2024;15:00;6
05.05.2024;14:00;6
05.05.2024;13:00;6
05.05.2024;12:00;6
05.05.2024;11:00;7
05.05.2024;10:00;8
05.05.2024;09:00;12
05.05.2024;08:00;14
05.05.2024;07:00;14
05.05.2024;06:00;14
05.05.2024;05:00;15
05.05.2024;04:00;16
05.05.2024;03:00;16
05.05.2024;02:00;15
05.05.2024;01:00;14
